MPH842 LPFR-EHAM

Flight info

Callsign MPH842
Flight time 2h 22m
Altitude 38000
Route ELVAR DCT BARDI DCT ZMR/N0482F400 DCT NUBLO DCT RONSI DCT DELOG DCT DIDIG DCT USODA DCT ERCUT DCT DITAL DCT ELCOB DCT PODEM DCT BAZOS DCT LUMIL DCT BELOB UY873 DENUT
Aircraft MD11/H-SDE1E2E3FGHIJ2J3J4J5M1RWXY/LB1D1

Departure

Time 2026-05-07 14:51
Airport Faro - Gago Coutinho International Airport (LPFR)

Arrival

Time 2026-05-07 17:14
Airport Amsterdam Airport Schiphol (EHAM)
Time Latitude Longitude Altitude Speed Heading
2026-05-07 14:29 37.01735 -7.96646 27 ft 0 kts 190°
2026-05-07 14:38 37.01755 -7.96641 27 ft 4 kts 192°
2026-05-07 14:38 37.01781 -7.96635 27 ft 4 kts 181°
2026-05-07 14:38 37.01799 -7.96635 27 ft 4 kts 132°
2026-05-07 14:39 37.01803 -7.96647 27 ft 4 kts 98°
2026-05-07 14:39 37.01807 -7.96681 27 ft 4 kts 99°
2026-05-07 14:39 37.01809 -7.96691 27 ft 0 kts 100°
2026-05-07 14:42 37.01808 -7.96686 27 ft 1 kts 100°
2026-05-07 14:43 37.01805 -7.96665 27 ft 4 kts 100°
2026-05-07 14:43 37.01799 -7.96624 27 ft 5 kts 100°
2026-05-07 14:43 37.01792 -7.96573 27 ft 6 kts 100°
2026-05-07 14:43 37.01772 -7.96531 27 ft 5 kts 138°
2026-05-07 14:44 37.01743 -7.96521 27 ft 3 kts 182°
2026-05-07 14:44 37.01723 -7.96527 27 ft 3 kts 191°
2026-05-07 14:44 37.01703 -7.96532 27 ft 3 kts 191°
2026-05-07 14:44 37.01681 -7.96537 28 ft 4 kts 191°
2026-05-07 14:45 37.01654 -7.96544 28 ft 4 kts 191°
2026-05-07 14:45 37.01635 -7.96541 28 ft 1 kts 155°
2026-05-07 14:45 37.01631 -7.96532 28 ft 5 kts 129°
2026-05-07 14:45 37.01607 -7.96453 28 ft 12 kts 103°
2026-05-07 14:46 37.01594 -7.96351 28 ft 12 kts 99°
2026-05-07 14:46 37.01580 -7.96248 27 ft 12 kts 99°
2026-05-07 14:46 37.01567 -7.96146 27 ft 12 kts 99°
2026-05-07 14:46 37.01552 -7.96047 27 ft 12 kts 102°
2026-05-07 14:47 37.01537 -7.95948 26 ft 12 kts 99°
2026-05-07 14:47 37.01510 -7.95858 30 ft 10 kts 128°
2026-05-07 14:47 37.01461 -7.95837 27 ft 4 kts 186°
2026-05-07 14:47 37.01435 -7.95843 27 ft 3 kts 190°
2026-05-07 14:48 37.01418 -7.95847 27 ft 2 kts 190°
2026-05-07 14:48 37.01409 -7.95849 27 ft 1 kts 190°
2026-05-07 14:48 37.01406 -7.95850 27 ft 0 kts 190°
2026-05-07 14:49 37.01392 -7.95853 28 ft 4 kts 190°
2026-05-07 14:49 37.01359 -7.95861 28 ft 3 kts 196°
2026-05-07 14:49 37.01356 -7.95866 28 ft 1 kts 220°
2026-05-07 14:49 37.01356 -7.95872 28 ft 0 kts 246°
2026-05-07 14:50 37.01353 -7.95878 28 ft 3 kts 240°
2026-05-07 14:50 37.01347 -7.95925 28 ft 5 kts 277°
2026-05-07 14:50 37.01349 -7.95935 28 ft 0 kts 280°
2026-05-07 14:51 37.01352 -7.95957 28 ft 24 kts 280°
2026-05-07 14:51 37.01446 -7.96624 30 ft 128 kts 279°
2026-05-07 14:51 37.01621 -7.97987 421 ft 168 kts 279°
2026-05-07 14:51 37.01840 -7.99488 1374 ft 191 kts 278°
2026-05-07 14:52 37.02121 -8.01235 2027 ft 210 kts 279°
2026-05-07 14:52 37.02423 -8.03110 2765 ft 236 kts 278°
2026-05-07 14:52 37.02755 -8.05273 3137 ft 267 kts 279°
2026-05-07 14:52 37.03132 -8.07454 4446 ft 259 kts 281°
2026-05-07 14:53 37.03485 -8.09668 5317 ft 266 kts 281°
2026-05-07 14:53 37.03915 -8.11971 6242 ft 271 kts 294°
2026-05-07 14:53 37.04980 -8.13854 7178 ft 272 kts 319°
2026-05-07 14:53 37.06651 -8.14989 8099 ft 277 kts 345°
2026-05-07 14:54 37.08577 -8.15096 8987 ft 284 kts
2026-05-07 14:54 37.10448 -8.14153 9793 ft 295 kts 31°
2026-05-07 14:54 37.12159 -8.12658 10466 ft 308 kts 36°
2026-05-07 14:54 37.13971 -8.10955 10598 ft 341 kts 37°
2026-05-07 14:55 37.15924 -8.09102 10711 ft 372 kts 37°
2026-05-07 14:55 37.18060 -8.07071 11074 ft 393 kts 37°
2026-05-07 14:55 37.20285 -8.05018 11923 ft 399 kts 33°
2026-05-07 14:55 37.22653 -8.03188 12936 ft 401 kts 28°
2026-05-07 14:56 37.25178 -8.01622 13750 ft 407 kts 22°
2026-05-07 14:56 37.27820 -8.00281 14509 ft 412 kts 19°
2026-05-07 14:56 37.30544 -7.99075 15204 ft 418 kts 17°
2026-05-07 14:56 37.33330 -7.97939 15992 ft 422 kts 15°
2026-05-07 14:57 37.36160 -7.96826 16682 ft 429 kts 15°
2026-05-07 14:57 37.38996 -7.95725 17376 ft 435 kts 14°
2026-05-07 14:57 37.41906 -7.94595 18065 ft 441 kts 14°
2026-05-07 14:57 37.44853 -7.93447 18703 ft 446 kts 14°
2026-05-07 14:58 37.47830 -7.92281 19423 ft 449 kts 14°
2026-05-07 14:58 37.50834 -7.91101 20076 ft 453 kts 14°
2026-05-07 14:58 37.53864 -7.89908 20736 ft 457 kts 14°
2026-05-07 14:58 37.56881 -7.88719 21373 ft 462 kts 14°
2026-05-07 14:59 37.59997 -7.87490 22031 ft 466 kts 13°
2026-05-07 14:59 37.63078 -7.86273 22669 ft 470 kts 13°
2026-05-07 14:59 37.66230 -7.85027 23285 ft 475 kts 13°
2026-05-07 14:59 37.69397 -7.83774 23856 ft 479 kts 13°
2026-05-07 15:00 37.72585 -7.82511 24396 ft 482 kts 13°
2026-05-07 15:00 37.75805 -7.81234 24919 ft 485 kts 13°
2026-05-07 15:00 37.79040 -7.79951 25444 ft 489 kts 13°
2026-05-07 15:00 37.82267 -7.78669 25937 ft 492 kts 13°
2026-05-07 15:01 37.85548 -7.77361 26442 ft 496 kts 13°
2026-05-07 15:01 37.88848 -7.76042 26957 ft 499 kts 13°
2026-05-07 15:01 37.92171 -7.74713 27501 ft 502 kts 12°
2026-05-07 15:01 37.95507 -7.73379 28198 ft 502 kts 12°
2026-05-07 15:02 37.98840 -7.72045 28934 ft 501 kts 12°
2026-05-07 15:02 38.02168 -7.70713 29650 ft 500 kts 12°
2026-05-07 15:02 38.05434 -7.69406 30281 ft 498 kts 12°
2026-05-07 15:02 38.08742 -7.68081 30851 ft 497 kts 11°
2026-05-07 15:03 38.12033 -7.66762 31405 ft 495 kts 11°
2026-05-07 15:03 38.15324 -7.65443 31956 ft 494 kts 11°
2026-05-07 15:03 38.18592 -7.64132 32485 ft 493 kts 11°
2026-05-07 15:03 38.21866 -7.62817 33017 ft 492 kts 11°
2026-05-07 15:04 38.25126 -7.61507 33501 ft 491 kts 10°
2026-05-07 15:04 38.27284 -7.60639 33840 ft 490 kts 10°
2026-05-07 15:04 38.30540 -7.59327 34242 ft 489 kts 10°
2026-05-07 15:04 38.34838 -7.57595 34765 ft 488 kts 10°
2026-05-07 15:05 38.37028 -7.56711 35013 ft 488 kts 10°
2026-05-07 15:05 38.40236 -7.55416 35384 ft 488 kts 10°
2026-05-07 15:05 38.43474 -7.54108 35840 ft 486 kts 10°
2026-05-07 15:05 38.46699 -7.52802 36202 ft 485 kts 10°
2026-05-07 15:06 38.49922 -7.51497 36554 ft 485 kts 10°
2026-05-07 15:06 38.53101 -7.50210 36878 ft 485 kts 10°
2026-05-07 15:06 38.56321 -7.48904 37210 ft 484 kts 10°
2026-05-07 15:06 38.59530 -7.47601 37530 ft 484 kts 10°
2026-05-07 15:07 38.62738 -7.46297 37835 ft 484 kts 10°
2026-05-07 15:07 38.65978 -7.44976 37946 ft 489 kts 11°
2026-05-07 15:07 38.72472 -7.42320 37942 ft 488 kts 11°
2026-05-07 15:08 38.78879 -7.39694 37952 ft 485 kts 10°
2026-05-07 15:08 38.85330 -7.37057 37937 ft 486 kts 10°
2026-05-07 15:09 38.91779 -7.34417 37951 ft 486 kts 11°
2026-05-07 15:09 38.98225 -7.31769 37940 ft 485 kts 11°
2026-05-07 15:10 39.04631 -7.29135 37931 ft 486 kts 11°
2026-05-07 15:10 39.11068 -7.26482 37931 ft 486 kts 11°
2026-05-07 15:11 39.17481 -7.23835 37938 ft 485 kts 11°
2026-05-07 15:11 39.23885 -7.21150 37933 ft 485 kts 14°
2026-05-07 15:12 39.30092 -7.17534 37934 ft 491 kts 21°
2026-05-07 15:12 39.36154 -7.13391 37960 ft 493 kts 22°
2026-05-07 15:13 39.42209 -7.09251 37929 ft 490 kts 21°
2026-05-07 15:13 39.48222 -7.05212 37930 ft 490 kts 21°
2026-05-07 15:14 39.54286 -7.01163 37929 ft 490 kts 21°
2026-05-07 15:14 39.60358 -6.97101 37948 ft 490 kts 21°
2026-05-07 15:15 39.66365 -6.93070 37934 ft 488 kts 21°
2026-05-07 15:15 39.72410 -6.89005 37934 ft 489 kts 21°
2026-05-07 15:16 39.78455 -6.84933 37929 ft 489 kts 21°
2026-05-07 15:16 39.84492 -6.80857 37952 ft 489 kts 21°
2026-05-07 15:17 39.90496 -6.76795 37939 ft 488 kts 21°
2026-05-07 15:17 39.96531 -6.72705 37939 ft 488 kts 21°
2026-05-07 15:18 40.02561 -6.68593 37942 ft 488 kts 21°
2026-05-07 15:18 40.08555 -6.64496 37934 ft 489 kts 21°
2026-05-07 15:19 40.14590 -6.60375 37935 ft 489 kts 21°
2026-05-07 15:19 40.20627 -6.56250 37945 ft 489 kts 21°
2026-05-07 15:20 40.26627 -6.52142 37943 ft 489 kts 21°
2026-05-07 15:20 40.32675 -6.47994 37957 ft 490 kts 21°
2026-05-07 15:21 40.38688 -6.43860 37959 ft 490 kts 21°
2026-05-07 15:21 40.44717 -6.39706 37953 ft 489 kts 21°
2026-05-07 15:22 40.50761 -6.35534 37953 ft 490 kts 21°
2026-05-07 15:22 40.56755 -6.31388 37950 ft 490 kts 21°
2026-05-07 15:23 40.62788 -6.27197 37956 ft 490 kts 21°
2026-05-07 15:23 40.68824 -6.23004 37956 ft 490 kts 21°
2026-05-07 15:24 40.74854 -6.18817 37986 ft 490 kts 22°
2026-05-07 15:24 40.80885 -6.14624 37962 ft 489 kts 22°
2026-05-07 15:25 40.86871 -6.10453 37958 ft 489 kts 22°
2026-05-07 15:25 40.92890 -6.06251 37965 ft 488 kts 22°
2026-05-07 15:26 40.98872 -6.02063 37960 ft 486 kts 22°
2026-05-07 15:26 41.04856 -5.97867 37953 ft 485 kts 22°
2026-05-07 15:27 41.10784 -5.93703 37962 ft 485 kts 22°
2026-05-07 15:27 41.16748 -5.89504 37957 ft 485 kts 22°
2026-05-07 15:28 41.22724 -5.85289 37964 ft 485 kts 23°
2026-05-07 15:28 41.28637 -5.81107 37965 ft 483 kts 23°
2026-05-07 15:29 41.34569 -5.76890 37978 ft 483 kts 24°
2026-05-07 15:29 41.40502 -5.72657 37967 ft 483 kts 24°
2026-05-07 15:30 41.46436 -5.68429 37970 ft 483 kts 24°
2026-05-07 15:30 41.52413 -5.64478 37968 ft 480 kts 20°
2026-05-07 15:31 41.58568 -5.60993 37968 ft 479 kts 18°
2026-05-07 15:31 41.64693 -5.57602 37985 ft 479 kts 19°
2026-05-07 15:32 41.70852 -5.54143 37968 ft 479 kts 19°
2026-05-07 15:32 41.77002 -5.50657 37969 ft 479 kts 19°
2026-05-07 15:33 41.83145 -5.47161 37971 ft 480 kts 19°
2026-05-07 15:33 41.89262 -5.43675 37974 ft 480 kts 19°
2026-05-07 15:34 41.95413 -5.40162 37971 ft 480 kts 19°
2026-05-07 15:34 42.01557 -5.36646 37968 ft 480 kts 19°
2026-05-07 15:35 42.07711 -5.33117 37997 ft 480 kts 20°
2026-05-07 15:35 42.13837 -5.29598 37975 ft 483 kts 20°
2026-05-07 15:36 42.20035 -5.26028 37970 ft 483 kts 20°
2026-05-07 15:36 42.26218 -5.22457 37970 ft 483 kts 20°
2026-05-07 15:37 42.32354 -5.18888 37973 ft 484 kts 20°
2026-05-07 15:37 42.38551 -5.15284 37972 ft 484 kts 20°
2026-05-07 15:38 42.44749 -5.11682 37971 ft 484 kts 20°
2026-05-07 15:38 42.50931 -5.08084 37988 ft 484 kts 20°
2026-05-07 15:39 42.57136 -5.04465 37971 ft 484 kts 20°
2026-05-07 15:39 42.63289 -5.00868 37973 ft 484 kts 20°
2026-05-07 15:40 42.69486 -4.97234 37977 ft 484 kts 20°
2026-05-07 15:40 42.75656 -4.93614 38308 ft 481 kts 21°
2026-05-07 15:41 42.78741 -4.91805 38581 ft 482 kts 21°
2026-05-07 15:41 42.81822 -4.89997 38803 ft 482 kts 21°
2026-05-07 15:41 42.84864 -4.88210 39020 ft 483 kts 21°
2026-05-07 15:41 42.87958 -4.86391 39248 ft 483 kts 21°
2026-05-07 15:42 42.91048 -4.84573 39479 ft 483 kts 21°
2026-05-07 15:42 42.94129 -4.82757 39714 ft 482 kts 21°
2026-05-07 15:42 42.97211 -4.80939 39902 ft 483 kts 21°
2026-05-07 15:42 43.00325 -4.79101 39814 ft 490 kts 21°
2026-05-07 15:43 43.06569 -4.75408 39890 ft 488 kts 21°
2026-05-07 15:43 43.12762 -4.71734 39896 ft 488 kts 21°
2026-05-07 15:44 43.18998 -4.68029 39895 ft 487 kts 21°
2026-05-07 15:44 43.25234 -4.64315 39894 ft 487 kts 21°
2026-05-07 15:45 43.31419 -4.60623 39900 ft 488 kts 21°
2026-05-07 15:45 43.37640 -4.56902 39893 ft 487 kts 21°
2026-05-07 15:46 43.46986 -4.51279 39895 ft 490 kts 21°
2026-05-07 15:47 43.53235 -4.47491 39899 ft 489 kts 21°
2026-05-07 15:47 43.59475 -4.43709 39898 ft 490 kts 21°
2026-05-07 15:48 43.65691 -4.39939 39898 ft 490 kts 21°
2026-05-07 15:48 43.71953 -4.36133 39894 ft 490 kts 21°
2026-05-07 15:49 43.78201 -4.32326 39902 ft 490 kts 21°
2026-05-07 15:49 43.84450 -4.28511 39901 ft 490 kts 21°
2026-05-07 15:50 43.90649 -4.24717 39898 ft 490 kts 21°
2026-05-07 15:50 43.96894 -4.20887 39910 ft 490 kts 21°
2026-05-07 15:51 44.03131 -4.17052 39898 ft 490 kts 21°
2026-05-07 15:51 44.09374 -4.13205 39900 ft 490 kts 21°
2026-05-07 15:52 44.15567 -4.09379 39918 ft 490 kts 21°
2026-05-07 15:52 44.21797 -4.05522 39912 ft 490 kts 21°
2026-05-07 15:53 44.28028 -4.01638 39914 ft 490 kts 22°
2026-05-07 15:53 44.34241 -3.97695 39914 ft 491 kts 25°
2026-05-07 15:54 44.40061 -3.92663 39920 ft 493 kts 33°
2026-05-07 15:54 44.45607 -3.87088 39919 ft 494 kts 34°
2026-05-07 15:55 44.50257 -3.82408 39925 ft 493 kts 33°
2026-05-07 15:55 44.55882 -3.76839 39936 ft 496 kts 33°
2026-05-07 15:56 44.61533 -3.71280 39926 ft 496 kts 33°
2026-05-07 15:56 44.67162 -3.65735 39938 ft 496 kts 33°
2026-05-07 15:57 44.72808 -3.60154 39935 ft 496 kts 33°
2026-05-07 15:57 44.78469 -3.54544 39935 ft 496 kts 33°
2026-05-07 15:58 44.84108 -3.48941 39938 ft 496 kts 33°
2026-05-07 15:58 44.89725 -3.43346 39937 ft 496 kts 33°
2026-05-07 15:59 44.95382 -3.37698 39948 ft 498 kts 33°
2026-05-07 15:59 45.01013 -3.32063 39943 ft 498 kts 33°
2026-05-07 16:00 45.06662 -3.26366 39947 ft 498 kts 34°
2026-05-07 16:00 45.12283 -3.20678 39951 ft 498 kts 34°
2026-05-07 16:01 45.17937 -3.14968 39952 ft 499 kts 34°
2026-05-07 16:01 45.23600 -3.09245 39950 ft 499 kts 34°
2026-05-07 16:02 45.29249 -3.03521 39951 ft 499 kts 34°
2026-05-07 16:02 45.34869 -2.97812 39962 ft 499 kts 34°
2026-05-07 16:03 45.40531 -2.92045 39956 ft 499 kts 34°
2026-05-07 16:03 45.46178 -2.86279 39959 ft 499 kts 34°
2026-05-07 16:04 45.51835 -2.80488 39961 ft 499 kts 34°
2026-05-07 16:04 45.57483 -2.74692 39959 ft 499 kts 34°
2026-05-07 16:05 45.63083 -2.68931 39962 ft 500 kts 34°
2026-05-07 16:05 45.68730 -2.63107 39967 ft 501 kts 34°
2026-05-07 16:06 45.74382 -2.57232 39961 ft 501 kts 34°
2026-05-07 16:06 45.79983 -2.51391 39962 ft 500 kts 34°
2026-05-07 16:07 45.85618 -2.45524 39966 ft 500 kts 34°
2026-05-07 16:07 45.91265 -2.39640 39968 ft 500 kts 34°
2026-05-07 16:08 45.96874 -2.33783 39967 ft 501 kts 34°
2026-05-07 16:08 46.02536 -2.27853 39971 ft 502 kts 34°
2026-05-07 16:09 46.08251 -2.22085 39969 ft 501 kts 32°
2026-05-07 16:09 46.14091 -2.16545 39968 ft 501 kts 32°
2026-05-07 16:10 46.19894 -2.11081 39969 ft 501 kts 32°
2026-05-07 16:10 46.25736 -2.05540 39971 ft 501 kts 32°
2026-05-07 16:11 46.31525 -2.00017 39969 ft 500 kts 32°
2026-05-07 16:11 46.37341 -1.94451 39969 ft 501 kts 32°
2026-05-07 16:12 46.43153 -1.88876 39971 ft 501 kts 32°
2026-05-07 16:12 46.48963 -1.83288 39973 ft 500 kts 32°
2026-05-07 16:13 46.54759 -1.77701 39972 ft 500 kts 32°
2026-05-07 16:13 46.60514 -1.72138 39972 ft 499 kts 32°
2026-05-07 16:14 46.66295 -1.66535 39970 ft 499 kts 32°
2026-05-07 16:14 46.72082 -1.60911 39968 ft 499 kts 32°
2026-05-07 16:15 46.77815 -1.55297 39965 ft 499 kts 33°
2026-05-07 16:15 46.83577 -1.49635 39964 ft 499 kts 32°
2026-05-07 16:16 46.89342 -1.43978 39969 ft 499 kts 32°
2026-05-07 16:16 46.95116 -1.38309 39969 ft 499 kts 32°
2026-05-07 16:17 47.00444 -1.31904 39971 ft 499 kts 45°
2026-05-07 16:17 47.05066 -1.24304 39972 ft 499 kts 49°
2026-05-07 16:18 47.09588 -1.16550 39970 ft 499 kts 49°
2026-05-07 16:18 47.14171 -1.08875 39971 ft 499 kts 48°
2026-05-07 16:19 47.18757 -1.01285 39978 ft 499 kts 48°
2026-05-07 16:19 47.23377 -0.93637 39974 ft 500 kts 48°
2026-05-07 16:20 47.27991 -0.85969 39974 ft 500 kts 48°
2026-05-07 16:20 47.32600 -0.78282 39978 ft 500 kts 48°
2026-05-07 16:21 47.37204 -0.70580 39982 ft 500 kts 48°
2026-05-07 16:21 47.41776 -0.62927 39988 ft 499 kts 47°
2026-05-07 16:22 47.46943 -0.56120 39992 ft 498 kts 36°
2026-05-07 16:22 47.52542 -0.50062 39992 ft 498 kts 34°
2026-05-07 16:23 47.58158 -0.44034 39993 ft 498 kts 35°
2026-05-07 16:23 47.63721 -0.37914 39994 ft 498 kts 36°
2026-05-07 16:24 47.69255 -0.31750 39996 ft 498 kts 36°
2026-05-07 16:24 47.74765 -0.25592 39994 ft 498 kts 36°
2026-05-07 16:25 47.80301 -0.19392 40006 ft 498 kts 36°
2026-05-07 16:25 47.85804 -0.13214 39999 ft 497 kts 36°
2026-05-07 16:26 47.91327 -0.06999 39993 ft 497 kts 36°
2026-05-07 16:26 47.96846 -0.00770 39989 ft 497 kts 36°
2026-05-07 16:27 48.02357 0.05467 40002 ft 497 kts 36°
2026-05-07 16:27 48.07868 0.11722 39999 ft 496 kts 36°
2026-05-07 16:28 48.13324 0.17970 40001 ft 496 kts 37°
2026-05-07 16:28 48.18807 0.24266 40003 ft 497 kts 36°
2026-05-07 16:29 48.24297 0.30558 40004 ft 497 kts 36°
2026-05-07 16:29 48.29788 0.36858 40009 ft 496 kts 36°
2026-05-07 16:30 48.35278 0.43173 40004 ft 496 kts 36°
2026-05-07 16:30 48.40724 0.49457 40012 ft 496 kts 36°
2026-05-07 16:31 48.46203 0.55795 40020 ft 496 kts 37°
2026-05-07 16:31 48.51666 0.62135 40019 ft 495 kts 37°
2026-05-07 16:32 48.57116 0.68477 40019 ft 495 kts 37°
2026-05-07 16:32 48.62541 0.74806 40020 ft 495 kts 37°
2026-05-07 16:33 48.67993 0.81186 40024 ft 495 kts 37°
2026-05-07 16:33 48.73435 0.87571 40015 ft 494 kts 37°
2026-05-07 16:34 48.78884 0.93938 40028 ft 494 kts 37°
2026-05-07 16:34 48.84310 1.00222 40037 ft 494 kts 36°
2026-05-07 16:35 48.89777 1.06543 40042 ft 494 kts 36°
2026-05-07 16:35 48.95252 1.12890 40049 ft 494 kts 36°
2026-05-07 16:36 49.00717 1.19246 40021 ft 494 kts 36°
2026-05-07 16:36 49.06031 1.25896 40021 ft 494 kts 41°
2026-05-07 16:37 49.11021 1.33092 40017 ft 495 kts 43°
2026-05-07 16:37 49.15948 1.40356 40025 ft 495 kts 43°
2026-05-07 16:38 49.20929 1.47639 40031 ft 495 kts 43°
2026-05-07 16:38 49.25918 1.54908 40042 ft 494 kts 43°
2026-05-07 16:39 49.30899 1.62196 40046 ft 494 kts 43°
2026-05-07 16:39 49.35846 1.69446 40041 ft 494 kts 43°
2026-05-07 16:40 49.40812 1.76736 40036 ft 494 kts 43°
2026-05-07 16:40 49.45778 1.84044 40033 ft 494 kts 43°
2026-05-07 16:41 49.50765 1.91237 40044 ft 494 kts 39°
2026-05-07 16:41 49.56190 1.97719 40046 ft 493 kts 35°
2026-05-07 16:42 49.61747 2.03900 40045 ft 493 kts 35°
2026-05-07 16:42 49.67302 2.10139 40042 ft 493 kts 35°
2026-05-07 16:43 49.72796 2.16400 40049 ft 493 kts 36°
2026-05-07 16:43 49.78307 2.22722 40037 ft 492 kts 36°
2026-05-07 16:44 49.82884 2.27986 40033 ft 492 kts 36°
2026-05-07 16:44 49.89276 2.35355 40037 ft 492 kts 36°
2026-05-07 16:45 49.94770 2.41709 40050 ft 492 kts 36°
2026-05-07 16:45 49.99337 2.47003 40047 ft 492 kts 36°
2026-05-07 16:46 50.04818 2.53375 40049 ft 492 kts 36°
2026-05-07 16:46 50.10302 2.59769 40045 ft 492 kts 36°
2026-05-07 16:47 50.15776 2.66171 40047 ft 492 kts 36°
2026-05-07 16:47 50.21205 2.72586 40051 ft 491 kts 36°
2026-05-07 16:48 50.26660 2.79043 40053 ft 491 kts 36°
2026-05-07 16:48 50.32131 2.85508 39730 ft 495 kts 36°
2026-05-07 16:48 50.34883 2.88761 39436 ft 493 kts 36°
2026-05-07 16:49 50.37625 2.92007 38982 ft 493 kts 36°
2026-05-07 16:49 50.40344 2.95167 38478 ft 490 kts 33°
2026-05-07 16:49 50.43214 2.98029 37925 ft 488 kts 29°
2026-05-07 16:49 50.46178 3.00635 37407 ft 487 kts 27°
2026-05-07 16:50 50.49183 3.03127 36914 ft 487 kts 26°
2026-05-07 16:50 50.52183 3.05580 36430 ft 486 kts 26°
2026-05-07 16:50 50.55183 3.08047 35943 ft 486 kts 26°
2026-05-07 16:50 50.58174 3.10536 35462 ft 485 kts 26°
2026-05-07 16:51 50.61159 3.13046 34991 ft 485 kts 26°
2026-05-07 16:51 50.64090 3.15528 34529 ft 484 kts 26°
2026-05-07 16:51 50.67065 3.18058 34030 ft 483 kts 26°
2026-05-07 16:51 50.70017 3.20574 33489 ft 483 kts 26°
2026-05-07 16:52 50.72978 3.23079 32914 ft 484 kts 26°
2026-05-07 16:52 50.75960 3.25582 32362 ft 485 kts 26°
2026-05-07 16:52 50.78948 3.28079 31805 ft 486 kts 26°
2026-05-07 16:52 50.81944 3.30581 31272 ft 487 kts 26°
2026-05-07 16:53 50.84908 3.33058 30740 ft 488 kts 26°
2026-05-07 16:53 50.87927 3.35585 30212 ft 490 kts 26°
2026-05-07 16:53 50.90932 3.38106 29572 ft 488 kts 26°
2026-05-07 16:53 50.93927 3.40624 29019 ft 485 kts 26°
2026-05-07 16:54 50.96898 3.43126 28445 ft 481 kts 26°
2026-05-07 16:54 50.99845 3.45612 27900 ft 477 kts 26°
2026-05-07 16:54 51.02761 3.48075 27341 ft 473 kts 26°
2026-05-07 16:54 51.05654 3.50521 26786 ft 469 kts 26°
2026-05-07 16:55 51.08524 3.52951 26230 ft 465 kts 26°
2026-05-07 16:55 51.11331 3.55331 25695 ft 461 kts 26°
2026-05-07 16:55 51.14159 3.57732 25150 ft 457 kts 26°
2026-05-07 16:55 51.16951 3.60107 24613 ft 454 kts 27°
2026-05-07 16:56 51.19737 3.62478 24075 ft 450 kts 27°
2026-05-07 16:56 51.22527 3.64670 23501 ft 445 kts 20°
2026-05-07 16:56 51.28513 3.66181 22284 ft 431 kts 358°
2026-05-07 16:57 51.31496 3.66015 21715 ft 427 kts 355°
2026-05-07 16:57 51.34417 3.65746 21164 ft 423 kts 355°
2026-05-07 16:57 51.37351 3.65496 20616 ft 420 kts 355°
2026-05-07 16:57 51.40259 3.65300 20070 ft 416 kts 356°
2026-05-07 16:58 51.43142 3.65153 19534 ft 412 kts 357°
2026-05-07 16:58 51.46001 3.65039 18994 ft 409 kts 357°
2026-05-07 16:58 51.48844 3.64941 18471 ft 406 kts 357°
2026-05-07 16:58 51.51662 3.64853 17895 ft 403 kts 358°
2026-05-07 16:59 51.54415 3.64770 17339 ft 399 kts 357°
2026-05-07 16:59 51.57186 3.64687 16816 ft 397 kts 357°
2026-05-07 16:59 51.59950 3.64601 16293 ft 394 kts 358°
2026-05-07 16:59 51.62682 3.64517 15784 ft 391 kts 357°
2026-05-07 17:00 51.65403 3.64433 15281 ft 389 kts 357°
2026-05-07 17:00 51.68098 3.64518 14784 ft 387 kts
2026-05-07 17:00 51.70692 3.65386 14308 ft 386 kts 19°
2026-05-07 17:00 51.73054 3.67437 13806 ft 386 kts 37°
2026-05-07 17:01 51.74911 3.70532 13301 ft 383 kts 53°
2026-05-07 17:01 51.76395 3.74097 12799 ft 382 kts 58°
2026-05-07 17:01 51.77748 3.77767 12304 ft 378 kts 59°
2026-05-07 17:01 51.79071 3.81417 11827 ft 375 kts 59°
2026-05-07 17:02 51.80405 3.85029 11425 ft 372 kts 59°
2026-05-07 17:02 51.81711 3.88496 11189 ft 354 kts 58°
2026-05-07 17:02 51.82960 3.91760 11096 ft 329 kts 58°
2026-05-07 17:02 51.84131 3.94794 10991 ft 307 kts 58°
2026-05-07 17:03 51.85235 3.97644 10886 ft 296 kts 58°
2026-05-07 17:03 51.86328 4.00461 10778 ft 294 kts 58°
2026-05-07 17:03 51.87416 4.03262 10633 ft 294 kts 58°
2026-05-07 17:03 51.88511 4.06082 10323 ft 295 kts 58°
2026-05-07 17:04 51.89600 4.08890 9824 ft 294 kts 58°
2026-05-07 17:04 51.90697 4.11659 9310 ft 289 kts 53°
2026-05-07 17:04 51.92038 4.14055 8866 ft 285 kts 44°
2026-05-07 17:04 51.93489 4.16178 8454 ft 283 kts 41°
2026-05-07 17:05 51.94998 4.18280 8032 ft 282 kts 41°
2026-05-07 17:05 51.96474 4.20319 7640 ft 280 kts 41°
2026-05-07 17:05 51.97952 4.22361 7233 ft 278 kts 41°
2026-05-07 17:05 51.99421 4.24395 6835 ft 275 kts 41°
2026-05-07 17:06 52.00870 4.26403 6457 ft 272 kts 41°
2026-05-07 17:06 52.02303 4.28392 6094 ft 270 kts 43°
2026-05-07 17:06 52.03713 4.30353 5741 ft 269 kts 42°
2026-05-07 17:06 52.05126 4.32321 5393 ft 267 kts 41°
2026-05-07 17:07 52.06530 4.34275 5055 ft 264 kts 42°
2026-05-07 17:07 52.07920 4.36214 4703 ft 262 kts 42°
2026-05-07 17:07 52.09300 4.38142 4353 ft 259 kts 41°
2026-05-07 17:07 52.10660 4.40043 4027 ft 257 kts 42°
2026-05-07 17:08 52.12010 4.41931 3698 ft 255 kts 42°
2026-05-07 17:08 52.13335 4.43787 3353 ft 253 kts 42°
2026-05-07 17:08 52.14659 4.45641 3009 ft 250 kts 42°
2026-05-07 17:08 52.15971 4.47484 2707 ft 247 kts 41°
2026-05-07 17:09 52.17266 4.49300 2415 ft 241 kts 41°
2026-05-07 17:09 52.18542 4.51092 2119 ft 242 kts 41°
2026-05-07 17:09 52.19763 4.52808 1979 ft 217 kts 41°
2026-05-07 17:09 52.20850 4.54332 1968 ft 206 kts 42°
2026-05-07 17:10 52.21905 4.55901 1972 ft 202 kts 50°
2026-05-07 17:10 52.22700 4.57630 1961 ft 179 kts 56°
2026-05-07 17:10 52.23373 4.59317 1987 ft 179 kts 58°
2026-05-07 17:10 52.24055 4.61100 1864 ft 178 kts 58°
2026-05-07 17:11 52.24680 4.62724 1537 ft 159 kts 57°
2026-05-07 17:11 52.25250 4.64207 1375 ft 154 kts 57°
2026-05-07 17:11 52.25814 4.65671 1169 ft 147 kts 56°
2026-05-07 17:11 52.26350 4.67064 945 ft 146 kts 57°
2026-05-07 17:12 52.26882 4.68446 770 ft 142 kts 56°
2026-05-07 17:12 52.27404 4.69803 580 ft 141 kts 56°
2026-05-07 17:12 52.27926 4.71158 403 ft 141 kts 56°
2026-05-07 17:12 52.28460 4.72516 221 ft 140 kts 56°
2026-05-07 17:13 52.28971 4.73872 31 ft 140 kts 56°
2026-05-07 17:13 52.29425 4.75056 6 ft 103 kts 57°
2026-05-07 17:13 52.29745 4.75893 5 ft 76 kts 58°
2026-05-07 17:13 52.29990 4.76533 6 ft 59 kts 58°
2026-05-07 17:14 52.30184 4.77035 4 ft 47 kts 58°
2026-05-07 17:14 52.30316 4.77302 3 ft 19 kts 34°
2026-05-07 17:14 52.30405 4.77384 5 ft 12 kts 24°
2026-05-07 17:14 52.30464 4.77412 6 ft 6 kts
2026-05-07 17:15 52.30489 4.77397 8 ft 3 kts 329°
2026-05-07 17:15 52.30506 4.77379 7 ft 3 kts 327°
2026-05-07 17:15 52.30526 4.77359 6 ft 5 kts 327°
2026-05-07 17:15 52.30558 4.77325 6 ft 6 kts 327°
2026-05-07 17:16 52.30575 4.77285 6 ft 3 kts 283°
2026-05-07 17:16 52.30574 4.77248 6 ft 3 kts 258°
2026-05-07 17:16 52.30564 4.77220 7 ft 3 kts 236°
2026-05-07 17:16 52.30558 4.77205 7 ft 1 kts 236°
2026-05-07 17:17 52.30551 4.77188 6 ft 2 kts 236°
2026-05-07 17:17 52.30548 4.77181 6 ft 0 kts 237°
2026-05-07 17:17 52.30547 4.77179 6 ft 1 kts 237°
2026-05-07 17:17 52.30545 4.77168 6 ft 1 kts 250°
2026-05-07 17:18 52.30539 4.77147 6 ft 1 kts 225°
2026-05-07 17:18 52.30531 4.77142 8 ft 0 kts 210°
2026-05-07 17:18 52.30528 4.77139 7 ft 1 kts 210°
2026-05-07 17:18 52.30522 4.77133 6 ft 0 kts 210°
2026-05-07 17:20 52.30521 4.77132 6 ft 0 kts 209°
2026-05-07 17:20 52.30520 4.77132 6 ft 0 kts 206°
2026-05-07 17:20 52.30516 4.77132 6 ft 1 kts 190°
2026-05-07 17:21 52.30501 4.77141 6 ft 5 kts 160°
2026-05-07 17:21 52.30471 4.77177 6 ft 3 kts 117°
2026-05-07 17:21 52.30472 4.77224 6 ft 8 kts 79°
2026-05-07 17:21 52.30502 4.77315 6 ft 8 kts 52°
2026-05-07 17:22 52.30532 4.77332 6 ft 4 kts
2026-05-07 17:22 52.30559 4.77318 6 ft 5 kts 339°
2026-05-07 17:22 52.30590 4.77316 6 ft 4 kts 16°
2026-05-07 17:22 52.30605 4.77343 6 ft 3 kts 52°
2026-05-07 17:23 52.30630 4.77400 6 ft 10 kts 54°
2026-05-07 17:23 52.30688 4.77452 6 ft 10 kts 11°
2026-05-07 17:23 52.30760 4.77462 6 ft 11 kts
2026-05-07 17:23 52.30838 4.77473 6 ft 12 kts
2026-05-07 17:24 52.30923 4.77484 7 ft 13 kts
2026-05-07 17:24 52.31013 4.77488 6 ft 14 kts
2026-05-07 17:24 52.31110 4.77492 6 ft 14 kts
2026-05-07 17:24 52.31211 4.77502 7 ft 13 kts
2026-05-07 17:25 52.31275 4.77493 7 ft 8 kts 332°
2026-05-07 17:25 52.31294 4.77432 6 ft 5 kts 269°
2026-05-07 17:25 52.31290 4.77363 7 ft 8 kts 266°
2026-05-07 17:25 52.31292 4.77247 6 ft 11 kts 272°
2026-05-07 17:26 52.31296 4.77117 6 ft 12 kts 278°
2026-05-07 17:26 52.31321 4.77032 6 ft 6 kts 307°
2026-05-07 17:26 52.31338 4.76992 6 ft 3 kts 305°
2026-05-07 17:26 52.31345 4.76975 6 ft 0 kts 304°